AD5L Weather Reports


time (UTC)temp
C
wind
direction
speed
KPH
gust
KPH
rain 1hr
cm
rain 24hr
cm
rain mn
cm
humidity
%
barometer
mb
20260506014330 26 139 0.0 6.4 0.00 0.00 0.00 83 1006.6
20260506013339 26 103 1.6 8.0 0.00 0.00 0.00 82 1006.5
20260506012346 26 131 3.2 11.3 0.00 0.00 0.00 81 1006.4
20260506011325 27 151 3.2 8.0 0.00 0.00 0.00 80 1006.3
20260506010344 27 126 4.8 11.3 0.00 0.00 0.00 78 1006.3
20260506005326 27 146 4.8 11.3 0.00 0.00 0.00 77 1006.3
20260506004337 28 150 6.4 12.9 0.00 0.00 0.00 76 1006.3
20260506003325 28 205 4.8 17.7 0.00 0.00 0.00 76 1006.2
20260506002336 28 233 6.4 14.5 0.00 0.00 0.00 75 1006.3
20260506001327 28 124 8.0 11.3 0.00 0.00 0.00 76 1006.3
20260506000339 28 91 4.8 12.9 0.00 0.00 0.00 76 1006.2
20260505235328 28 181 1.6 11.3 0.00 0.00 0.00 75 1006.3
20260505234340 28 129 4.8 12.9 0.00 0.00 0.00 75 1006.2
20260505233330 28 123 6.4 16.1 0.00 0.00 0.00 74 1006.1
20260505232341 28 243 6.4 16.1 0.00 0.00 0.00 73 1006.1
20260505231330 29 172 6.4 11.3 0.00 0.00 0.00 73 1006.0
20260505230339 29 207 8.0 14.5 0.00 0.00 0.00 72 1005.9
20260505225330 29 126 4.8 16.1 0.00 0.00 0.00 73 1005.8
20260505224337 29 193 8.0 20.9 0.00 0.00 0.00 73 1005.7
20260505223328 29 127 6.4 24.1 0.00 0.00 0.00 73 1005.9
20260505222335 29 214 8.0 22.5 0.00 0.00 0.00 72 1005.7
20260505221326 29 162 8.0 20.9 0.00 0.00 0.00 72 1005.7
20260505220338 30 127 8.0 17.7 0.00 0.00 0.00 71 1005.8
20260505215348 30 221 8.0 19.3 0.00 0.00 0.00 71 1005.8
20260505214339 30 116 11.3 24.1 0.00 0.00 0.00 71 1006.0
20260505213350 30 154 8.0 19.3 0.00 0.00 0.00 71 1005.9
20260505212331 30 121 6.4 19.3 0.00 0.00 0.00 70 1006.2
20260505211322 30 245 9.7 22.5 0.00 0.00 0.00 71 1006.4
20260505210329 30 245 6.4 17.7 0.00 0.00 0.00 72 1006.5
20260505205339 30 109 9.7 25.7 0.00 0.00 0.00 72 1006.5
20260505204331 30 179 6.4 20.9 0.00 0.00 0.00 72 1006.7
20260505203322 29 115 11.3 20.9 0.00 0.00 0.00 72 1006.6
20260505202334 30 129 9.7 19.3 0.00 0.00 0.00 71 1006.9
20260505201324 30 217 8.0 17.7 0.00 0.00 0.00 69 1007.0
20260505200333 30 156 8.0 20.9 0.00 0.00 0.00 68 1007.1
20260505195324 30 130 8.0 19.3 0.00 0.00 0.00 71 1007.1
20260505194336 29 231 12.9 25.7 0.00 0.00 0.00 70 1007.4
20260505193327 29 157 8.0 22.5 0.00 0.00 0.00 72 1007.5
20260505192337 29 206 8.0 16.1 0.00 0.00 0.00 71 1007.6
20260505191328 28 158 9.7 20.9 0.00 0.00 0.00 73 1007.7
20260505190338 28 153 8.0 17.7 0.00 0.00 0.00 72 1007.7
20260505185329 28 169 11.3 22.5 0.00 0.00 0.00 72 1007.7
20260505184340 28 146 8.0 20.9 0.00 0.00 0.00 72 1007.9
20260505183323 27 250 8.0 19.3 0.00 0.00 0.00 74 1008.1
20260505182343 27 253 9.7 22.5 0.00 0.00 0.00 74 1008.3
20260505181325 27 201 4.8 22.5 0.00 0.00 0.00 77 1008.5
20260505180336 27 218 8.0 19.3 0.00 0.00 0.00 77 1008.5
20260505175328 26 207 8.0 14.5 0.00 0.00 0.00 79 1008.6
20260505174337 26 243 11.3 20.9 0.00 0.00 0.00 80 1008.8
20260505173328 25 238 11.3 22.5 0.00 0.00 0.00 81 1008.9
20260505172340 25 240 9.7 25.7 0.00 0.00 0.00 82 1008.8
20260505171330 25 155 8.0 20.9 0.00 0.00 0.00 83 1008.9
20260505170322 25 221 9.7 19.3 0.00 0.00 0.00 84 1008.9
20260505165333 24 250 4.8 14.5 0.00 0.00 0.00 85 1008.9
20260505164323 24 222 4.8 19.3 0.00 0.00 0.00 85 1008.9
20260505163330 24 231 4.8 14.5 0.00 0.00 0.00 86 1008.9
20260505162322 23 139 6.4 16.1 0.00 0.00 0.00 87 1009.0
20260505161334 23 212 4.8 16.1 0.00 0.00 0.00 87 1009.0
20260505160345 23 146 8.0 19.3 0.00 0.00 0.00 87 1008.9
20260505153324 22 194 8.0 14.5 0.00 0.00 0.00 89 1008.9
20260505152345 22 217 6.4 12.9 0.00 0.00 0.00 89 1008.9
20260505151327 22 235 3.2 11.3 0.00 0.00 0.00 90 1009.0
20260505150347 22 212 8.0 17.7 0.00 0.00 0.00 90 1008.9
20260505140340 22 224 9.7 17.7 0.00 0.00 0.00 91 1008.4
20260505124348 21 140 4.8 22.5 0.00 0.00 0.00 91 1008.0
20260505123338 21 206 4.8 17.7 0.00 0.00 0.00 92 1007.8
20260505122345 21 190 6.4 17.7 0.00 0.00 0.00 92 1007.6
20260505121328 21 198 4.8 16.1 0.00 0.00 0.00 92 1007.5
20260505120348 21 136 3.2 12.9 0.00 0.00 0.00 92 1007.4
20260505115329 21 124 8.0 17.7 0.00 0.00 0.00 92 1007.1
20260505114341 21 158 9.7 17.7 0.00 0.00 0.00 92 1007.0
20260505113332 21 160 4.8 16.1 0.00 0.00 0.00 91 1007.1
20260505112324 21 160 8.0 14.5 0.00 0.00 0.00 91 1007.1
20260505111334 21 139 4.8 24.1 0.00 0.00 0.00 91 1007.0
20260505110323 21 230 4.8 20.9 0.00 0.00 0.00 91 1007.0
20260505101339 21 188 6.4 11.3 0.00 0.00 0.00 90 1007.6
20260505100330 21 160 6.4 19.3 0.00 0.00 0.00 90 1007.6
20260505095342 21 172 4.8 16.1 0.00 0.00 0.00 91 1007.6
20260505094333 21 146 4.8 17.7 0.00 0.00 0.00 91 1007.6
20260505093345 21 120 4.8 12.9 0.00 0.00 0.00 91 1007.7
20260505092327 21 184 4.8 17.7 0.00 0.00 0.00 90 1007.6
20260505091348 21 237 6.4 17.7 0.00 0.00 0.00 90 1007.7
20260505090330 21 165 9.7 19.3 0.00 0.00 0.00 90 1008.0
20260505085349 21 150 4.8 16.1 0.00 0.00 0.00 90 1007.8
20260505084331 21 131 6.4 19.3 0.00 0.00 0.00 90 1007.9
20260505083323 21 114 8.0 24.1 0.00 0.00 0.00 89 1007.9
20260505082331 21 195 4.8 17.7 0.00 0.00 0.00 89 1008.0
20260505081323 21 168 11.3 25.7 0.00 0.00 0.00 89 1008.2
20260505080333 21 160 9.7 19.3 0.00 0.00 0.00 89 1008.1
20260505075325 21 127 8.0 20.9 0.00 0.00 0.00 89 1008.1
20260505074332 21 203 11.3 22.5 0.00 0.00 0.00 89 1008.3
20260505073322 21 162 8.0 30.6 0.00 0.00 0.00 89 1008.4
20260505072333 21 217 11.3 20.9 0.00 0.00 0.00 89 1008.4
20260505071325 21 148 11.3 24.1 0.00 0.00 0.00 89 1008.6
20260505070335 21 122 8.0 22.5 0.00 0.00 0.00 89 1008.7
20260505065346 21 137 8.0 17.7 0.00 0.00 0.00 89 1008.8
20260505064338 21 184 9.7 25.7 0.00 0.00 0.00 88 1008.9
20260505063349 21 210 11.3 20.9 0.00 0.00 0.00 88 1008.8
20260505062341 22 173 9.7 25.7 0.00 0.00 0.00 88 1008.9
20260505061322 22 202 6.4 20.9 0.00 0.00 0.00 88 1009.0
20260505060332 22 178 9.7 24.1 0.00 0.00 0.00 88 1009.1
20260505055323 22 186 9.7 27.4 0.00 0.00 0.00 88 1009.1
20260505054333 22 179 9.7 25.7 0.00 0.00 0.00 88 1009.1
20260505053324 22 170 8.0 24.1 0.00 0.00 0.00 87 1009.0
20260505052336 22 160 9.7 30.6 0.00 0.00 0.00 87 1008.9
20260505051327 22 169 9.7 24.1 0.00 0.00 0.00 87 1009.1
20260505050337 22 99 12.9 25.7 0.00 0.00 0.00 87 1008.9
20260505041334 22 154 6.4 20.9 0.00 0.00 0.00 85 1009.0
20260505040326 22 150 9.7 19.3 0.00 0.00 0.00 84 1009.0
20260505035337 23 169 4.8 12.9 0.00 0.00 0.00 84 1009.1
20260505034345 23 192 6.4 17.7 0.00 0.00 0.00 83 1009.1
20260505033336 23 112 8.0 16.1 0.00 0.00 0.00 83 1009.1
20260505032343 23 91 4.8 17.7 0.00 0.00 0.00 82 1008.9
20260505031325 23 214 6.4 16.1 0.00 0.00 0.00 82 1008.9
20260505030345 23 165 9.7 19.3 0.00 0.00 0.00 81 1009.0
20260505025327 23 137 6.4 16.1 0.00 0.00 0.00 80 1008.9
20260505024347 23 110 6.4 19.3 0.00 0.00 0.00 78 1008.9
20260505023324 24 129 3.2 12.9 0.00 0.00 0.00 77 1008.9
20260505022334 24 143 4.8 14.5 0.00 0.00 0.00 76 1008.8
20260505021326 24 168 8.0 16.1 0.00 0.00 0.00 75 1008.8
20260505020336 24 150 6.4 17.7 0.00 0.00 0.00 75 1008.6
20260505015327 24 219 6.4 14.5 0.00 0.00 0.00 74 1008.5